Flag for U.S.A. Weather past 2 weeks in Oberlin, Ohio, U.S.A.

Now
61 °F

Clear.


Feels Like: 61 °F
Forecast: 62 / 82 °F
Wind: 6 mph from Southeast

Location: Lorain County Regional Airport

Current Time: May 29, 2015 at 3:11:33 AM

Latest Report: May 29, 2015 at 1:53 AM


Visibility: 10 mi

Pressure: 30.19 "Hg

Humidity: 83%

Dew point: 56 °F

Location of OberlinLocation

Historic Weather in Oberlin — Graph

°F

Oberlin temperature yesterday

Maximum temperature yesterday: 79 °F (at 2:53 PM)
Minimum temperature yesterday: 61 °F (at 5:53 AM)
Average temperature yesterday: 69 °F

Past Weeks' High & Low Weather Summary

 TemperatureHumidityPressure
High85 °F (May 26, 5:53 PM)100% (May 14, 2:53 AM)30.50 "Hg (May 14, 2:53 AM)
Low33 °F (May 14, 6:01 AM)24% (May 23, 2:53 PM)29.95 "Hg (May 26, 5:53 PM)
Average63 °F66%30.13 "Hg
* Reported May 14 1:53 AM — May 29 1:53 AM, Oberlin, Weather by CustomWeather, © 2015

Note: Actual official high and low records may vary slightly from our data, if they occured in-between our weather recording intervals... More about our weather records

Advertising

Oberlin weather history for previous 24 hours

 ConditionsComfort  
Time TempWeatherWind HumidityBarometerVisibility
1:53 AM
Fri, May 29
61 °FClear.6 mph83%30.19 "Hg10 mi
12:53 AM60 °FClear.6 mph83%30.20 "Hg10 mi
11:53 PM
Thu, May 28
62 °FClear.3 mph78%30.22 "Hg10 mi
10:53 PM64 °FClear.No wind70%30.22 "Hg10 mi
9:53 PM65 °FClear.6 mph70%30.21 "Hg10 mi
8:53 PM68 °FSunny.7 mph63%30.21 "Hg10 mi
7:53 PM72 °FSunny.9 mph57%30.20 "Hg10 mi
6:53 PM75 °FSunny.10 mph54%30.20 "Hg10 mi
5:53 PM77 °FSunny.9 mph50%30.20 "Hg10 mi
4:53 PM78 °FSunny.10 mph50%30.20 "Hg10 mi
3:53 PM79 °FSunny.13 mph48%30.22 "Hg10 mi
2:53 PM79 °FSunny.No wind48%30.24 "Hg10 mi
1:53 PM77 °FSunny.5 mph47%30.26 "Hg10 mi
12:53 PM75 °FSunny.5 mph52%30.26 "Hg10 mi
11:53 AM72 °FSunny.No wind57%30.27 "Hg10 mi
10:53 AM69 °FSunny.5 mph63%30.25 "Hg10 mi
9:53 AM68 °FSunny.10 mph61%30.25 "Hg10 mi
8:53 AM65 °FSunny.6 mph73%30.24 "Hg10 mi
7:53 AM63 °FSunny.8 mph81%30.23 "Hg10 mi
6:53 AM61 °FClear.5 mph93%30.21 "Hg7 mi
5:53 AM61 °FClear.7 mph100%30.19 "Hg7 mi
4:53 AM62 °FFog.5 mph100%30.16 "Hg4 mi
3:53 AM62 °FFog.No wind100%30.14 "Hg3 mi
Weather by CustomWeather, © 2015

See weather overviewHow to use our weather pages